SCP
0 0 0 0 0 0 0 0 0 0 0 0 0 0 0 0 0 0 0 0 0 0 0 0 0 0 0 0 0 0 0 0 0 0 0 0 0 0 0 0 0 0 0 0 0 0 0
0 0 0 0 0 0 0 0 0 0 0 0 0 0 0 0 0 0 0 0 0 0 0 0 0 0 0 0 0 0 0 0 0 0 0 0 0 0 0 0 0 0 0 0 0 0 0
0 0 0 0 0 0 0 0 0 0 0 0 0 0 0 0 0 0 0 0 0 0 0 0 0 0 0 0 0 0 0 0 0 0 0 0 0 0 0 0 0 0 0 0 0 0 0
0 -0 0 0 0 0 0 0 0 0 0 0 0 0 0 0 0 0 0 0 0 0 0 0 0 0 0 0 0 0 0 0 0 0 0 0 0 0 0 0 0 0 0 0 0 0 0
0 0 0 0 0 0 0 0 0 0 0 0 0 0 0 0 0 0 0 0 0 0 0 0 0 0 0 0 0 0 0 0 0 0 0 0 0 0 0 0 0 0 0 0 0 0 0
0 0 0 0 0 0 0 0 0 0 0 0 0 0 0 0 0 0 0 0 0 0 0 0 0 0 0 0 0 0 0 0 0 0 0 0 0 0 0 0 0 0 0 0 0 0 0
0 0 0 0 0 0 0 0 0 0 0 0 0 0 0 0 0 0 0 0 0 0 0 0 0 0 0 0 0 0 0 0 0 0 0 0 0 0 0 0 0 0 0 0 0 0 0
0 0 0 0 0 0 0 0 0 0 0 0 0 0 0 0 0 0 0 0 0 0 0 0 0 0 0 0 0 0 0 0 0 0 0 0 0 0 0 0 0 0 0 0 0 0 0
0 0 0 0 0 0 0 0 0 0 0 0 0 0 0 0 0 -0 0 0 0 0 0 0 0 0 0 0 0 0 0 0 0 0 0 0 0 0 0 0 0 0 0 0 0 0 0
0 0 0 0 0 0 0 0 0 0 0 0 0 0 0 0 0 0 0 0 0 0 0 0 0 0 0 0 0 0 0 0 0 0 0 0 0 0 0 0 0 0 0 0 0 0 0
0 0 0 0 0 0 0 0 0 0 -0 -0 0 0 0 0 0 0 0 0 0 0 0 0 0 0 0 0 0 0 0 0 0 0 0 0 0 0 0 0 0 0 0 0 0 0 0
0 0 0 0 0 0 0 0 0 0 -0 0 0 -0 0 0 -0 0 0 0 0 0 0 0 0 0 0 0 0 0 0 0 0 0 0 0 0 0 0 0 0 0 0 0 0 0 0
0 0 0 0 0 0 0 0 0 -0 -0 -0 -0 0 -0 0 0 0 0 0 0 0 0 0 0 0 0 0 0 0 0 0 0 0 0 0 0 0 0 0 0 0 0 0 0 0 0
0 0 0 0 0 0 0 0 0 -0 -0 -0 -0 -0 0 0 0 0 0 0 0 0 0 0 0 0 0 0 0 0 0 0 0 0 0 0 0 0 0 0 0 0 0 0 0 0 0
0 0 0 0 0 0 0 0 -0 -0 -0 -0 0 -0 0 0 0 0 0 0 0 0 0 0 0 0 0 0 0 0 0 0 0 0 0 0 0 0 0 0 0 0 0 0 0 0 0
0 0 0 0 0 0 0 -0 -0 -0 -0 -0 -0 0 0 0 0 0 0 0 0 0 0 0 0 0 0 0 0 0 0 0 0 0 0 0 0 0 0 0 0 0 0 0 0 0 0
0 0 0 0 0 0 0 -0 -0 -0 -0 0 0 0 0 -0 0 0 0 0 0 0 0 0 0 0 0 0 0 0 0 0 0 0 0 0 0 0 0 0 0 0 0 0 0 0 0
0 0 0 0 0 0 0 -0 -0 -0 -0 -0 0 0 -0 0 0 0 0 0 0 0 0 0 0 0 0 0 0 0 0 0 0 0 0 0 0 0 0 0 0 0 0 0 0 0 0
0 0 0 0 0 0 0 -0 -0 -0 -0 0 0 0 -0 0 0 0 0 0 0 0 0 0 0 0 0 0 0 0 0 0 0 0 0 0 0 0 0 0 0 0 0 0 0 0 0
0 0 0 0 0 0 -0 -0 -0 -0 -0 0 0 0 0 0 0 0 0 0 0 0 0 0 0 0 0 0 0 -0 0 0 0 0 0 0 0 0 0 0 0 0 0 0 0 0 0
0 0 0 0 0 -0 0 -0 -0 -0 -0 0 0 0 0 0 0 0 0 0 0 0 0 0 0 0 0 0 0 0 -0 0 0 0 0 0 0 0 -0 -0 0 0 -0 -0 0 -0 0
0 0 0 0 0 -0 -0 -0 -0 -0 -0 0 0 0 0 0 0 0 0 0 0 0 0 0 0 -0 0 0 0 0 0 -0 -0 -0 -0 0 -0 0 -0 -0 -0 -0 -0 -0 -0 -0 -0
0 0 0 0 0 -0 -0 -0 -0 -0 -0 0 0 0 0 0 0 0 0 0 0 0 0 0 0 0 0 0 0 0 -0 0 0 0 -0 -0 -0 0 0 -0 -0 0 0 0 0 0 -0
0 0 0 0 0 0 -0 0 0 -0 -0 0 0 0 0 0 0 0 -0 0 0 0 0 0 0 0 0 0 0 0 0 -0 -0 -0 -0 -0 0 0 0 0 0 0 0 0 -0 -0 -0
0 0 0 0 0 -0 -0 -0 -0 -0 -0 0 0 0 0 0 0 0 0 0 0 0 0 0 0 0 0 0 0 0 -0 -0 -0 0 -0 -0 0 0 0 0 0 0 0 0 0 0 -0
0 0 0 0 0 -0 -0 -0 -0 -0 -0 0 0 0 0 0 0 0 0 0 0 0 0 0 0 0 0 -0 0 0 0 0 -0 0 -0 -0 -0 0 0 0 0 0 0 0 0 0 -0
0 0 0 0 0 -0 -0 0 -0 -0 -0 0 0 0 0 0 0 0 -0 -0 0 0 0 0 0 0 0 0 0 0 0 0 0 0 -0 0 -0 -0 -0 -0 0 0 0 0 0 0 0
0 0 0 0 0 0 -0 0 0 -0 -0 0 0 0 0 0 0 0 0 0 0 0 0 0 0 0 0 -0 0 0 0 0 0 0 0 -0 0 -0 -0 -0 -0 0 0 0 0 0 0
0 0 0 0 0 0 -0 0 0 0 -0 -0 0 0 0 0 0 0 0 0 0 0 0 0 0 0 0 -0 -0 -0 -0 -0 0 0 0 0 -0 0 -0 -0 0 0 -0 -0 -0 -0 0
Wind_Speed_500mb
44 45 47 48 49 51 51 50 48 50 53 49 45 37 33 42 41 38 39 31 25 22 24 18 16 21 26 21 17 8 5 10 28 40 34 25 20 15 14 9 13 23 20 19 25 23 29
44 42 47 47 45 48 50 51 52 51 55 53 50 42 29 39 45 42 43 33 24 21 25 18 15 17 24 23 21 29 7 4 16 39 37 31 17 14 8 9 18 4 13 21 20 29 30
45 43 43 46 47 47 49 52 53 55 52 52 46 47 37 34 34 49 41 42 23 21 25 21 14 15 19 23 19 23 24 25 12 26 32 34 21 14 14 9 7 13 19 24 32 32 28
45 44 45 48 53 50 54 54 53 53 52 50 47 45 40 36 37 45 40 48 21 22 24 17 14 13 13 16 32 19 24 21 21 21 23 30 23 13 8 4 5 9 10 11 6 5 12
48 52 54 56 56 52 50 54 51 55 55 50 53 48 41 42 38 22 39 48 33 28 26 20 17 12 9 14 18 22 30 24 28 25 21 24 21 10 9 10 11 15 14 17 18 13 11
52 54 50 54 54 56 51 58 50 54 55 50 57 50 45 36 49 27 33 54 41 38 29 21 16 7 17 7 12 22 41 36 23 27 20 13 10 11 16 16 11 11 17 19 19 4 16
55 53 54 57 58 60 63 59 50 52 53 54 49 48 44 36 43 44 13 59 33 15 30 17 17 5 10 15 18 22 38 30 25 27 20 20 13 23 28 27 23 8 14 21 20 19 34
55 58 59 62 60 59 61 58 50 56 55 54 44 45 41 41 41 37 54 45 60 21 17 37 16 16 15 19 10 20 41 25 28 26 21 12 25 26 15 23 26 29 32 32 28 24 23
59 58 64 64 63 60 62 58 52 52 51 50 46 54 42 46 45 44 53 49 62 30 11 19 37 18 16 19 9 30 42 20 27 25 33 17 2 13 27 28 27 32 33 29 31 32 36
61 64 59 65 65 64 62 58 51 50 52 52 52 56 42 43 39 32 48 32 56 27 6 17 21 19 33 14 8 23 39 18 11 26 21 20 26 13 17 24 25 30 22 27 29 21 12
60 63 63 67 69 65 60 56 50 50 52 53 53 44 46 40 29 27 28 28 50 22 14 23 14 18 29 32 25 16 31 7 17 19 13 6 13 21 26 24 23 14 10 15 17 21 23
65 66 66 66 65 60 58 54 48 53 56 55 60 64 67 44 34 39 15 39 45 7 12 15 14 21 29 28 15 17 25 7 12 12 13 18 2 10 12 13 27 3 11 19 20 15 17
61 61 63 67 62 60 57 52 52 57 50 56 69 72 51 30 23 32 29 52 9 10 13 17 18 26 31 23 19 21 24 20 13 11 15 16 32 12 14 16 14 25 8 6 9 12 16
62 66 68 64 59 59 54 52 57 49 58 63 71 52 12 22 27 26 40 8 9 12 12 11 28 33 17 34 14 22 26 21 23 9 5 9 8 30 23 32 11 33 28 11 11 15 20
68 67 63 61 57 56 54 55 51 51 59 64 74 27 2 22 26 26 36 9 5 15 23 25 25 18 11 24 11 15 21 15 20 26 12 11 9 7 15 15 25 11 19 27 29 42 27
65 63 61 58 57 57 57 59 50 54 62 74 64 15 7 21 21 32 4 2 1 12 38 33 14 14 17 29 17 20 24 13 17 32 28 6 8 12 8 17 24 25 1 9 13 13 30
60 58 60 59 59 60 57 61 50 57 65 60 53 9 15 25 21 23 5 4 9 31 27 7 14 18 17 26 19 21 14 5 18 22 36 14 11 8 7 24 29 20 16 12 11 16 18
57 59 57 59 59 58 58 56 49 57 64 61 20 3 32 45 6 4 4 4 18 19 3 8 14 19 27 26 23 18 19 9 19 25 20 23 9 15 31 23 29 35 33 38 18 26 16
59 58 58 58 59 60 59 55 53 58 66 82 7 3 28 11 5 5 6 4 11 6 4 7 7 6 10 17 12 15 10 6 28 24 23 21 10 8 8 8 17 22 40 45 40 23 38
56 58 56 55 57 56 57 55 51 60 69 18 6 3 8 11 5 17 22 9 10 10 8 15 13 14 13 10 3 13 14 9 27 27 15 24 12 14 20 28 6 15 29 39 35 22 37
55 60 55 54 53 56 57 59 50 59 59 26 7 5 5 4 11 16 12 8 20 7 6 7 7 7 10 9 10 8 11 7 9 22 20 15 12 23 42 47 44 47 51 44 38 53 33
56 55 55 52 52 54 53 60 48 54 68 30 14 9 4 10 27 20 9 14 11 7 5 5 7 17 11 8 7 10 9 13 12 20 22 11 12 8 26 38 44 48 48 45 40 45 54
52 54 52 49 49 48 53 58 49 52 66 26 38 21 7 5 11 12 8 12 12 11 2 6 6 7 10 14 18 19 18 10 7 13 26 9 5 5 14 26 36 18 17 19 14 20 36
49 52 52 46 46 46 50 55 49 46 48 49 40 16 6 7 9 10 13 8 13 15 7 4 11 7 4 5 10 18 26 34 32 29 21 12 8 5 13 15 8 8 14 21 23 30 33
49 48 47 45 43 44 44 47 46 44 45 47 19 3 10 4 10 14 9 9 12 9 5 4 8 10 7 6 6 8 5 7 13 21 28 23 8 6 6 11 24 13 13 11 8 9 10
44 45 43 39 41 40 42 43 45 45 40 31 20 19 12 3 15 18 13 25 13 9 3 5 6 7 7 5 3 5 5 3 2 4 6 13 16 7 2 8 7 13 13 9 3 6 28
41 43 42 43 41 41 41 42 42 40 36 36 13 22 4 8 8 39 22 17 10 10 4 0 2 3 11 7 7 8 7 3 4 5 8 7 5 10 12 10 14 13 14 5 10 15 29
39 40 41 41 41 37 36 37 39 39 34 35 22 26 20 9 6 25 28 14 12 14 8 10 6 4 5 7 5 5 5 4 6 4 8 14 10 8 8 9 8 3 6 9 8 16 18
37 39 41 44 41 42 40 39 38 35 33 31 25 24 18 12 5 16 21 23 28 20 22 18 1 7 7 5 6 5 6 4 7 6 6 8 9 3 11 7 7 6 16 21 18 16 10
Wind_Direction_500mb
358 354 352 351 349 350 347 343 340 340 337 332 326 307 309 294 265 261 249 264 280 265 247 238 227 210 190 209 222 186 202 208 204 197 189 183 188 188 214 208 212 234 249 247 250 248 254
351 351 349 351 349 345 343 343 338 336 328 329 325 320 298 317 261 260 241 249 266 256 239 228 225 211 201 222 229 225 211 235 201 187 190 189 197 186 178 218 228 277 267 265 264 257 261
352 350 347 349 341 338 337 336 338 335 332 328 324 314 285 312 294 249 240 235 239 239 229 218 221 217 218 225 229 225 224 236 184 184 189 191 180 178 170 189 239 280 281 274 259 254 259
346 344 340 342 335 333 332 331 332 330 328 327 313 310 289 298 303 246 237 221 219 220 207 208 213 220 242 236 232 198 193 186 191 183 199 203 193 152 191 164 222 257 264 282 97 205 230
340 332 336 335 328 330 329 326 326 326 326 319 311 315 305 279 296 263 233 222 204 199 192 195 207 198 251 237 221 205 193 170 160 145 141 147 148 169 160 228 249 217 257 237 281 248 272
333 331 328 328 327 324 325 322 321 324 323 313 309 308 310 270 284 276 226 215 190 181 177 177 191 223 228 199 189 189 180 179 156 148 128 148 170 196 214 198 229 232 226 237 252 178 269
331 330 328 327 319 325 324 318 318 319 320 312 312 305 311 300 275 268 231 173 153 158 180 187 190 204 138 148 146 170 171 159 163 186 193 196 198 209 217 221 240 279 261 260 262 278 298
333 329 325 322 325 325 321 320 322 320 320 316 321 314 310 305 289 278 262 191 172 175 177 202 159 191 154 158 138 164 164 163 169 190 177 177 227 227 232 234 240 248 263 267 279 276 279
328 329 326 324 323 322 323 324 321 321 317 321 319 318 310 309 286 280 255 204 183 153 96 177 203 188 199 181 189 181 177 170 183 171 193 198 147 215 217 225 233 238 249 265 274 296 290
333 327 325 323 326 327 327 325 324 325 323 325 319 316 311 313 291 281 250 247 184 170 141 167 188 220 203 163 233 177 176 170 172 195 190 234 217 196 192 223 230 260 257 260 267 277 272
332 333 331 327 329 331 330 328 329 328 326 322 314 300 321 310 262 274 236 235 185 194 196 135 152 160 171 176 137 167 182 186 177 162 176 170 183 211 226 234 218 243 223 249 260 253 278
340 333 330 331 333 333 333 331 333 330 327 322 318 314 313 305 251 238 263 208 159 169 193 154 133 162 156 191 153 136 173 188 179 193 234 258 197 206 215 219 214 49 231 253 265 257 249
342 338 338 336 336 337 334 337 336 330 328 322 325 317 299 259 227 222 204 144 126 230 163 150 168 157 162 167 148 158 176 176 169 166 210 222 233 210 189 217 203 221 179 265 237 208 247
332 333 340 339 341 339 340 341 335 334 330 337 332 337 302 211 192 175 176 149 179 124 130 178 153 151 171 156 170 170 168 188 213 191 128 221 218 198 196 215 202 208 210 217 258 247 298
338 343 342 344 346 346 345 343 340 337 337 342 334 337 23 178 181 198 148 185 157 162 140 140 133 151 129 166 159 154 184 199 196 197 196 173 247 195 205 206 204 179 217 238 267 264 264
338 344 345 348 348 349 349 347 344 341 342 347 345 344 190 168 177 156 108 112 263 122 128 142 134 194 162 170 163 183 179 199 210 203 203 183 257 209 199 216 233 227 234 201 201 253 250
344 345 347 347 349 351 350 348 345 345 344 351 345 343 150 152 155 115 212 116 107 135 125 138 133 144 162 168 174 178 174 183 206 190 195 168 215 155 174 210 206 200 225 217 278 234 252
346 347 348 349 348 351 354 351 349 346 345 343 317 308 154 151 131 161 167 158 129 144 124 109 102 104 145 159 172 186 200 234 181 154 185 205 208 239 238 239 228 233 238 226 235 233 235
345 348 348 350 350 355 353 353 350 346 342 332 293 4 161 170 129 112 113 95 76 115 83 97 101 100 149 157 155 185 188 177 171 182 176 176 213 276 254 190 224 239 241 236 235 258 246
345 348 349 350 353 351 355 355 352 349 355 4 147 119 141 183 151 130 134 97 107 46 65 76 105 97 121 150 124 178 207 199 196 204 194 181 217 230 259 279 331 253 254 246 231 242 254
346 346 350 351 355 351 357 356 356 1 14 23 30 38 60 107 162 146 125 108 122 114 72 93 105 123 153 149 161 207 199 192 181 204 193 202 246 234 257 271 278 268 266 262 228 235 239
348 348 350 356 354 352 355 0 1 5 15 23 21 355 52 124 157 156 107 142 163 112 121 117 136 170 179 185 189 189 207 212 213 188 198 219 274 276 277 269 267 272 269 264 249 242 244
351 347 351 350 356 358 358 1 8 10 13 9 354 349 331 157 151 159 166 151 177 128 161 91 152 146 198 239 259 263 218 240 234 194 200 212 233 278 270 319 302 271 268 259 237 229 231
351 350 350 352 356 360 357 359 6 7 8 359 347 332 308 149 174 153 149 146 177 181 120 131 145 177 56 191 282 256 243 248 244 228 202 190 182 217 291 313 288 277 292 285 277 268 238
351 348 350 356 353 356 358 357 5 0 2 1 21 340 315 131 182 191 182 141 147 103 198 169 180 202 244 310 271 297 213 224 219 236 227 215 203 268 278 299 276 291 330 320 315 336 300
351 348 350 352 351 353 353 356 2 359 3 4 50 16 303 275 214 176 177 199 204 204 218 227 234 227 211 234 190 258 266 272 127 145 32 225 226 213 329 302 301 301 347 344 200 14 3
350 348 354 353 353 354 355 357 350 358 7 357 356 5 285 256 249 192 195 185 170 159 112 193 211 172 194 183 222 235 247 257 273 213 174 154 187 227 235 260 269 273 309 283 3 323 345
346 345 347 349 347 347 340 339 344 354 1 355 341 357 4 299 287 193 201 162 149 162 173 140 152 183 166 210 229 231 249 256 271 229 192 198 195 205 198 236 288 171 282 353 339 324 323
337 338 342 349 348 343 343 336 340 341 345 349 333 340 339 225 257 203 210 209 216 239 214 182 277 131 171 202 220 270 223 219 264 267 174 226 230 258 225 250 321 263 270 290 311 303 315
Wind_Speed_850mb
44 45 47 48 49 51 51 50 48 50 53 49 45 37 33 42 41 38 39 31 25 22 24 18 16 21 26 21 17 8 5 10 28 40 34 25 20 15 14 9 13 23 20 19 25 23 29
44 42 47 47 45 48 50 51 52 51 55 53 50 42 29 39 45 42 43 33 24 21 25 18 15 17 24 23 21 29 7 4 16 39 37 31 17 14 8 9 18 4 13 21 20 29 30
45 43 43 46 47 47 49 52 53 55 52 52 46 47 37 34 34 49 41 42 23 21 25 21 14 15 19 23 19 23 24 25 12 26 32 34 21 14 14 9 7 13 19 24 32 32 28
45 44 45 48 53 50 54 54 53 53 52 50 47 45 40 36 37 45 40 48 21 22 24 17 14 13 13 16 32 19 24 21 21 21 23 30 23 13 8 4 5 9 10 11 6 5 12
48 52 54 56 56 52 50 54 51 55 55 50 53 48 41 42 38 22 39 48 33 28 26 20 17 12 9 14 18 22 30 24 28 25 21 24 21 10 9 10 11 15 14 17 18 13 11
52 54 50 54 54 56 51 58 50 54 55 50 57 50 45 36 49 27 33 54 41 38 29 21 16 7 17 7 12 22 41 36 23 27 20 13 10 11 16 16 11 11 17 19 19 4 16
55 53 54 57 58 60 63 59 50 52 53 54 49 48 44 36 43 44 13 59 33 15 30 17 17 5 10 15 18 22 38 30 25 27 20 20 13 23 28 27 23 8 14 21 20 19 34
55 58 59 62 60 59 61 58 50 56 55 54 44 45 41 41 41 37 54 45 60 21 17 37 16 16 15 19 10 20 41 25 28 26 21 12 25 26 15 23 26 29 32 32 28 24 23
59 58 64 64 63 60 62 58 52 52 51 50 46 54 42 46 45 44 53 49 62 30 11 19 37 18 16 19 9 30 42 20 27 25 33 17 2 13 27 28 27 32 33 29 31 32 36
61 64 59 65 65 64 62 58 51 50 52 52 52 56 42 43 39 32 48 32 56 27 6 17 21 19 33 14 8 23 39 18 11 26 21 20 26 13 17 24 25 30 22 27 29 21 12
60 63 63 67 69 65 60 56 50 50 52 53 53 44 46 40 29 27 28 28 50 22 14 23 14 18 29 32 25 16 31 7 17 19 13 6 13 21 26 24 23 14 10 15 17 21 23
65 66 66 66 65 60 58 54 48 53 56 55 60 64 67 44 34 39 15 39 45 7 12 15 14 21 29 28 15 17 25 7 12 12 13 18 2 10 12 13 27 3 11 19 20 15 17
61 61 63 67 62 60 57 52 52 57 50 56 69 72 51 30 23 32 29 52 9 10 13 17 18 26 31 23 19 21 24 20 13 11 15 16 32 12 14 16 14 25 8 6 9 12 16
62 66 68 64 59 59 54 52 57 49 58 63 71 52 12 22 27 26 40 8 9 12 12 11 28 33 17 34 14 22 26 21 23 9 5 9 8 30 23 32 11 33 28 11 11 15 20
68 67 63 61 57 56 54 55 51 51 59 64 74 27 2 22 26 26 36 9 5 15 23 25 25 18 11 24 11 15 21 15 20 26 12 11 9 7 15 15 25 11 19 27 29 42 27
65 63 61 58 57 57 57 59 50 54 62 74 64 15 7 21 21 32 4 2 1 12 38 33 14 14 17 29 17 20 24 13 17 32 28 6 8 12 8 17 24 25 1 9 13 13 30
60 58 60 59 59 60 57 61 50 57 65 60 53 9 15 25 21 23 5 4 9 31 27 7 14 18 17 26 19 21 14 5 18 22 36 14 11 8 7 24 29 20 16 12 11 16 18
57 59 57 59 59 58 58 56 49 57 64 61 20 3 32 45 6 4 4 4 18 19 3 8 14 19 27 26 23 18 19 9 19 25 20 23 9 15 31 23 29 35 33 38 18 26 16
59 58 58 58 59 60 59 55 53 58 66 82 7 3 28 11 5 5 6 4 11 6 4 7 7 6 10 17 12 15 10 6 28 24 23 21 10 8 8 8 17 22 40 45 40 23 38
56 58 56 55 57 56 57 55 51 60 69 18 6 3 8 11 5 17 22 9 10 10 8 15 13 14 13 10 3 13 14 9 27 27 15 24 12 14 20 28 6 15 29 39 35 22 37
55 60 55 54 53 56 57 59 50 59 59 26 7 5 5 4 11 16 12 8 20 7 6 7 7 7 10 9 10 8 11 7 9 22 20 15 12 23 42 47 44 47 51 44 38 53 33
56 55 55 52 52 54 53 60 48 54 68 30 14 9 4 10 27 20 9 14 11 7 5 5 7 17 11 8 7 10 9 13 12 20 22 11 12 8 26 38 44 48 48 45 40 45 54
52 54 52 49 49 48 53 58 49 52 66 26 38 21 7 5 11 12 8 12 12 11 2 6 6 7 10 14 18 19 18 10 7 13 26 9 5 5 14 26 36 18 17 19 14 20 36
49 52 52 46 46 46 50 55 49 46 48 49 40 16 6 7 9 10 13 8 13 15 7 4 11 7 4 5 10 18 26 34 32 29 21 12 8 5 13 15 8 8 14 21 23 30 33
49 48 47 45 43 44 44 47 46 44 45 47 19 3 10 4 10 14 9 9 12 9 5 4 8 10 7 6 6 8 5 7 13 21 28 23 8 6 6 11 24 13 13 11 8 9 10
44 45 43 39 41 40 42 43 45 45 40 31 20 19 12 3 15 18 13 25 13 9 3 5 6 7 7 5 3 5 5 3 2 4 6 13 16 7 2 8 7 13 13 9 3 6 28
41 43 42 43 41 41 41 42 42 40 36 36 13 22 4 8 8 39 22 17 10 10 4 0 2 3 11 7 7 8 7 3 4 5 8 7 5 10 12 10 14 13 14 5 10 15 29
39 40 41 41 41 37 36 37 39 39 34 35 22 26 20 9 6 25 28 14 12 14 8 10 6 4 5 7 5 5 5 4 6 4 8 14 10 8 8 9 8 3 6 9 8 16 18
37 39 41 44 41 42 40 39 38 35 33 31 25 24 18 12 5 16 21 23 28 20 22 18 1 7 7 5 6 5 6 4 7 6 6 8 9 3 11 7 7 6 16 21 18 16 10
Wind_Direction_850mb
358 354 352 351 349 350 347 343 340 340 337 332 326 307 309 294 265 261 249 264 280 265 247 238 227 210 190 209 222 186 202 208 204 197 189 183 188 188 214 208 212 234 249 247 250 248 254
351 351 349 351 349 345 343 343 338 336 328 329 325 320 298 317 261 260 241 249 266 256 239 228 225 211 201 222 229 225 211 235 201 187 190 189 197 186 178 218 228 277 267 265 264 257 261
352 350 347 349 341 338 337 336 338 335 332 328 324 314 285 312 294 249 240 235 239 239 229 218 221 217 218 225 229 225 224 236 184 184 189 191 180 178 170 189 239 280 281 274 259 254 259
346 344 340 342 335 333 332 331 332 330 328 327 313 310 289 298 303 246 237 221 219 220 207 208 213 220 242 236 232 198 193 186 191 183 199 203 193 152 191 164 222 257 264 282 97 205 230
340 332 336 335 328 330 329 326 326 326 326 319 311 315 305 279 296 263 233 222 204 199 192 195 207 198 251 237 221 205 193 170 160 145 141 147 148 169 160 228 249 217 257 237 281 248 272
333 331 328 328 327 324 325 322 321 324 323 313 309 308 310 270 284 276 226 215 190 181 177 177 191 223 228 199 189 189 180 179 156 148 128 148 170 196 214 198 229 232 226 237 252 178 269
331 330 328 327 319 325 324 318 318 319 320 312 312 305 311 300 275 268 231 173 153 158 180 187 190 204 138 148 146 170 171 159 163 186 193 196 198 209 217 221 240 279 261 260 262 278 298
333 329 325 322 325 325 321 320 322 320 320 316 321 314 310 305 289 278 262 191 172 175 177 202 159 191 154 158 138 164 164 163 169 190 177 177 227 227 232 234 240 248 263 267 279 276 279
328 329 326 324 323 322 323 324 321 321 317 321 319 318 310 309 286 280 255 204 183 153 96 177 203 188 199 181 189 181 177 170 183 171 193 198 147 215 217 225 233 238 249 265 274 296 290
333 327 325 323 326 327 327 325 324 325 323 325 319 316 311 313 291 281 250 247 184 170 141 167 188 220 203 163 233 177 176 170 172 195 190 234 217 196 192 223 230 260 257 260 267 277 272
332 333 331 327 329 331 330 328 329 328 326 322 314 300 321 310 262 274 236 235 185 194 196 135 152 160 171 176 137 167 182 186 177 162 176 170 183 211 226 234 218 243 223 249 260 253 278
340 333 330 331 333 333 333 331 333 330 327 322 318 314 313 305 251 238 263 208 159 169 193 154 133 162 156 191 153 136 173 188 179 193 234 258 197 206 215 219 214 49 231 253 265 257 249
342 338 338 336 336 337 334 337 336 330 328 322 325 317 299 259 227 222 204 144 126 230 163 150 168 157 162 167 148 158 176 176 169 166 210 222 233 210 189 217 203 221 179 265 237 208 247
332 333 340 339 341 339 340 341 335 334 330 337 332 337 302 211 192 175 176 149 179 124 130 178 153 151 171 156 170 170 168 188 213 191 128 221 218 198 196 215 202 208 210 217 258 247 298
338 343 342 344 346 346 345 343 340 337 337 342 334 337 23 178 181 198 148 185 157 162 140 140 133 151 129 166 159 154 184 199 196 197 196 173 247 195 205 206 204 179 217 238 267 264 264
338 344 345 348 348 349 349 347 344 341 342 347 345 344 190 168 177 156 108 112 263 122 128 142 134 194 162 170 163 183 179 199 210 203 203 183 257 209 199 216 233 227 234 201 201 253 250
344 345 347 347 349 351 350 348 345 345 344 351 345 343 150 152 155 115 212 116 107 135 125 138 133 144 162 168 174 178 174 183 206 190 195 168 215 155 174 210 206 200 225 217 278 234 252
346 347 348 349 348 351 354 351 349 346 345 343 317 308 154 151 131 161 167 158 129 144 124 109 102 104 145 159 172 186 200 234 181 154 185 205 208 239 238 239 228 233 238 226 235 233 235
345 348 348 350 350 355 353 353 350 346 342 332 293 4 161 170 129 112 113 95 76 115 83 97 101 100 149 157 155 185 188 177 171 182 176 176 213 276 254 190 224 239 241 236 235 258 246
345 348 349 350 353 351 355 355 352 349 355 4 147 119 141 183 151 130 134 97 107 46 65 76 105 97 121 150 124 178 207 199 196 204 194 181 217 230 259 279 331 253 254 246 231 242 254
346 346 350 351 355 351 357 356 356 1 14 23 30 38 60 107 162 146 125 108 122 114 72 93 105 123 153 149 161 207 199 192 181 204 193 202 246 234 257 271 278 268 266 262 228 235 239
348 348 350 356 354 352 355 0 1 5 15 23 21 355 52 124 157 156 107 142 163 112 121 117 136 170 179 185 189 189 207 212 213 188 198 219 274 276 277 269 267 272 269 264 249 242 244
351 347 351 350 356 358 358 1 8 10 13 9 354 349 331 157 151 159 166 151 177 128 161 91 152 146 198 239 259 263 218 240 234 194 200 212 233 278 270 319 302 271 268 259 237 229 231
351 350 350 352 356 360 357 359 6 7 8 359 347 332 308 149 174 153 149 146 177 181 120 131 145 177 56 191 282 256 243 248 244 228 202 190 182 217 291 313 288 277 292 285 277 268 238
351 348 350 356 353 356 358 357 5 0 2 1 21 340 315 131 182 191 182 141 147 103 198 169 180 202 244 310 271 297 213 224 219 236 227 215 203 268 278 299 276 291 330 320 315 336 300
351 348 350 352 351 353 353 356 2 359 3 4 50 16 303 275 214 176 177 199 204 204 218 227 234 227 211 234 190 258 266 272 127 145 32 225 226 213 329 302 301 301 347 344 200 14 3
350 348 354 353 353 354 355 357 350 358 7 357 356 5 285 256 249 192 195 185 170 159 112 193 211 172 194 183 222 235 247 257 273 213 174 154 187 227 235 260 269 273 309 283 3 323 345
346 345 347 349 347 347 340 339 344 354 1 355 341 357 4 299 287 193 201 162 149 162 173 140 152 183 166 210 229 231 249 256 271 229 192 198 195 205 198 236 288 171 282 353 339 324 323
337 338 342 349 348 343 343 336 340 341 345 349 333 340 339 225 257 203 210 209 216 239 214 182 277 131 171 202 220 270 223 219 264 267 174 226 230 258 225 250 321 263 270 290 311 303 315